�������l�o���
Date,Time,MP-1(��Sv/h),MP-2(��Sv/h),MP-3(��Sv/h),MP-4(��Sv/h),MP-5(��Sv/h),MP-6(��Sv/h),MP-7(��Sv/h),MP-8(��Sv/h),����,����(m/s),���J
2021/02/11,00:00,0.670,0.968,0.612,1.220,0.860,0.380,0.673,0.633,���k��,4.4,��
2021/02/11,00:10,0.673,0.965,0.612,1.219,0.860,0.381,0.674,0.633,���k��,5.5,��
2021/02/11,00:20,0.673,0.967,0.613,1.219,0.860,0.380,0.674,0.634,���k��,6.7,��
2021/02/11,00:30,0.671,0.967,0.613,1.217,0.862,0.379,0.675,0.634,���k��,5.1,��
2021/02/11,00:40,0.674,0.966,0.615,1.221,0.863,0.382,0.674,0.633,���k��,5.2,��
2021/02/11,00:50,0.671,0.965,0.612,1.221,0.861,0.382,0.675,0.633,��,5.8,��
2021/02/11,01:00,0.671,0.966,0.615,1.223,0.860,0.382,0.675,0.634,��,5.5,��
2021/02/11,01:10,0.671,0.968,0.613,1.220,0.863,0.382,0.675,0.634,��,5.4,��
2021/02/11,01:20,0.671,0.967,0.614,1.220,0.860,0.379,0.674,0.633,���k��,4.3,��
2021/02/11,01:30,0.673,0.967,0.612,1.220,0.861,0.380,0.673,0.633,��,5.2,��
2021/02/11,01:40,0.673,0.969,0.614,1.219,0.860,0.380,0.675,0.632,��,5.4,��
2021/02/11,01:50,0.671,0.966,0.615,1.221,0.861,0.380,0.674,0.633,���k��,5.4,��
2021/02/11,02:00,0.671,0.966,0.614,1.219,0.860,0.380,0.673,0.636,���k��,4.7,��
2021/02/11,02:10,0.673,0.966,0.615,1.219,0.862,0.380,0.675,0.632,���k��,4.6,��
2021/02/11,02:20,0.670,0.965,0.612,1.218,0.859,0.381,0.674,0.634,���k��,4.9,��
2021/02/11,02:30,0.672,0.966,0.614,1.219,0.859,0.381,0.674,0.632,�k��,3.5,��
2021/02/11,02:40,0.673,0.966,0.615,1.219,0.862,0.380,0.672,0.633,�k��,3.9,�L
2021/02/11,02:50,0.671,0.967,0.615,1.221,0.861,0.381,0.674,0.633,�k��,4.4,�L
2021/02/11,03:00,0.673,0.966,0.613,1.221,0.863,0.381,0.675,0.633,�k��,4.8,�L
2021/02/11,03:10,0.670,0.966,0.613,1.222,0.860,0.380,0.673,0.634,�k��,5.6,��
2021/02/11,03:20,0.670,0.966,0.615,1.219,0.862,0.380,0.676,0.633,�k��,5.8,�L
2021/02/11,03:30,0.673,0.965,0.615,1.221,0.860,0.382,0.674,0.634,�k��,5.6,�L
2021/02/11,03:40,0.672,0.966,0.613,1.221,0.861,0.381,0.673,0.632,�k��,7.9,�L
2021/02/11,03:50,0.671,0.967,0.613,1.220,0.862,0.381,0.674,0.633,�k��,7.8,�L
2021/02/11,04:00,0.670,0.967,0.614,1.221,0.859,0.381,0.675,0.634,���k��,7.9,��
2021/02/11,04:10,0.672,0.967,0.614,1.220,0.860,0.381,0.675,0.634,���k��,7.0,�L
2021/02/11,04:20,0.672,0.967,0.615,1.222,0.861,0.381,0.675,0.634,���k��,7.0,�L
2021/02/11,04:30,0.674,0.966,0.614,1.221,0.861,0.381,0.674,0.635,���k��,6.1,��
2021/02/11,04:40,0.671,0.967,0.613,1.221,0.860,0.381,0.674,0.633,���k��,5.6,��
2021/02/11,04:50,0.672,0.966,0.613,1.219,0.862,0.380,0.676,0.633,�k��,6.0,��
2021/02/11,05:00,0.673,0.966,0.614,1.221,0.862,0.380,0.675,0.631,�k��,5.0,��
2021/02/11,05:10,0.669,0.966,0.615,1.222,0.861,0.380,0.674,0.634,�k��,4.6,��
2021/02/11,05:20,0.670,0.967,0.613,1.222,0.861,0.379,0.674,0.634,�k��,2.6,��
2021/02/11,05:30,0.672,0.964,0.612,1.220,0.858,0.381,0.672,0.633,�k�k��,2.2,��
2021/02/11,05:40,0.670,0.966,0.612,1.219,0.859,0.380,0.673,0.633,�k��,2.0,��
2021/02/11,05:50,0.670,0.966,0.611,1.218,0.860,0.381,0.672,0.633,�k��,5.0,��
2021/02/11,06:00,0.671,0.964,0.612,1.222,0.861,0.380,0.673,0.634,�k��,4.7,��
2021/02/11,06:10,0.670,0.966,0.613,1.221,0.859,0.380,0.674,0.633,�k��,6.3,��
2021/02/11,06:20,0.670,0.965,0.614,1.221,0.861,0.379,0.672,0.633,�k��,8.0,��
2021/02/11,06:30,0.670,0.965,0.612,1.220,0.860,0.380,0.672,0.632,���k��,8.4,��
2021/02/11,06:40,0.670,0.965,0.613,1.219,0.861,0.379,0.674,0.634,���k��,8.9,��
2021/02/11,06:50,0.672,0.965,0.611,1.217,0.859,0.379,0.673,0.634,���k��,8.7,��
2021/02/11,07:00,0.672,0.966,0.612,1.221,0.860,0.380,0.673,0.634,���k��,9.2,��
2021/02/11,07:10,0.671,0.969,0.613,1.220,0.861,0.380,0.672,0.634,���k��,8.6,��
2021/02/11,07:20,0.671,0.965,0.612,1.220,0.860,0.380,0.674,0.635,���k��,7.9,��
2021/02/11,07:30,0.671,0.965,0.611,1.219,0.858,0.380,0.673,0.632,���k��,7.2,��
2021/02/11,07:40,0.671,0.967,0.612,1.219,0.862,0.381,0.675,0.633,���k��,7.1,��
2021/02/11,07:50,0.670,0.966,0.612,1.222,0.861,0.380,0.675,0.634,���k��,5.5,��
2021/02/11,08:00,0.671,0.967,0.612,1.222,0.860,0.379,0.673,0.634,���k��,6.0,��
2021/02/11,08:10,0.669,0.966,0.612,1.221,0.860,0.380,0.674,0.633,��,4.1,��
2021/02/11,08:20,0.673,0.964,0.614,1.218,0.860,0.380,0.674,0.633,��,4.8,��
2021/02/11,08:30,0.672,0.965,0.612,1.218,0.862,0.380,0.674,0.633,���쐼,4.9,��
2021/02/11,08:40,0.672,0.965,0.614,1.219,0.862,0.380,0.674,0.634,��,5.4,��
2021/02/11,08:50,0.672,0.964,0.613,1.222,0.860,0.379,0.672,0.634,��,4.8,��
2021/02/11,09:00,0.672,0.967,0.612,1.222,0.861,0.380,0.675,0.634,��,4.4,��
2021/02/11,09:10,0.672,0.967,0.613,1.217,0.861,0.379,0.676,0.633,��,5.1,��
2021/02/11,09:20,0.671,0.966,0.615,1.221,0.861,0.380,0.674,0.633,��,4.9,��
2021/02/11,09:30,0.671,0.963,0.614,1.221,0.861,0.378,0.673,0.635,��,4.6,��
2021/02/11,09:40,0.673,0.965,0.614,1.223,0.860,0.379,0.672,0.633,��,3.3,��
2021/02/11,09:50,0.673,0.968,0.612,1.223,0.861,0.379,0.671,0.633,��,3.4,��
2021/02/11,10:00,0.673,0.965,0.613,1.221,0.862,0.380,0.671,0.633,���k��,3.0,��
2021/02/11,10:10,0.670,0.965,0.614,1.223,0.860,0.380,0.672,0.634,���k��,3.4,��
2021/02/11,10:20,0.675,0.963,0.613,1.224,0.862,0.381,0.671,0.635,��,2.8,��
2021/02/11,10:30,0.671,0.967,0.614,1.222,0.862,0.380,0.673,0.632,���k��,4.3,��
2021/02/11,10:40,0.672,0.967,0.614,1.222,0.864,0.381,0.672,0.635,��,6.1,��
2021/02/11,10:50,0.674,0.965,0.614,1.221,0.863,0.380,0.674,0.634,���k��,5.7,��
2021/02/11,11:00,0.673,0.965,0.613,1.220,0.863,0.379,0.672,0.633,�k��,8.2,��
2021/02/11,11:10,0.674,0.967,0.615,1.223,0.864,0.382,0.670,0.633,�k��,7.3,��
2021/02/11,11:20,0.672,0.966,0.613,1.223,0.863,0.381,0.674,0.634,�k��,8.1,��
2021/02/11,11:30,0.672,0.964,0.613,1.222,0.863,0.381,0.671,0.636,���k��,9.2,��
2021/02/11,11:40,0.672,0.964,0.612,1.222,0.863,0.380,0.673,0.636,�k��,8.5,��
2021/02/11,11:50,0.672,0.966,0.614,1.222,0.862,0.379,0.671,0.633,�k��,9.1,��
2021/02/11,12:00,0.671,0.966,0.615,1.222,0.861,0.380,0.672,0.635,�k��,7.7,��
2021/02/11,12:10,0.670,0.967,0.615,1.224,0.860,0.380,0.672,0.634,�k��,10.7,��
2021/02/11,12:20,0.671,0.967,0.614,1.223,0.861,0.380,0.673,0.635,�k��,8.9,��
2021/02/11,12:30,0.671,0.968,0.614,1.221,0.863,0.380,0.671,0.635,�k��,9.0,��
2021/02/11,12:40,0.672,0.969,0.613,1.224,0.860,0.381,0.674,0.634,�k��,8.2,��
2021/02/11,12:50,0.672,0.965,0.614,1.224,0.862,0.381,0.672,0.634,�k��,8.3,��
2021/02/11,13:00,0.670,0.966,0.615,1.223,0.862,0.381,0.672,0.634,�k��,7.9,��
2021/02/11,13:10,0.670,0.963,0.613,1.223,0.861,0.380,0.673,0.633,�k��,9.1,��
2021/02/11,13:20,0.672,0.966,0.613,1.223,0.861,0.382,0.671,0.633,�k��,8.6,��
2021/02/11,13:30,0.673,0.963,0.613,1.224,0.862,0.381,0.677,0.634,�k��,7.2,��
2021/02/11,13:40,0.673,0.966,0.614,1.222,0.862,0.381,0.672,0.632,�k��,8.4,��
2021/02/11,13:50,0.671,0.964,0.613,1.223,0.860,0.381,0.673,0.633,�k��,6.9,��
2021/02/11,14:00,0.671,0.967,0.614,1.222,0.863,0.381,0.672,0.632,�k��,8.3,��
2021/02/11,14:10,0.672,0.964,0.615,1.222,0.863,0.380,0.672,0.631,�k��,7.4,��
2021/02/11,14:20,0.673,0.967,0.615,1.221,0.866,0.380,0.673,0.631,�k��,9.0,��
2021/02/11,14:30,0.674,0.969,0.616,1.224,0.864,0.380,0.672,0.633,�k��,6.6,��
2021/02/11,14:40,0.673,0.969,0.615,1.225,0.864,0.381,0.672,0.630,�k��,7.6,��
2021/02/11,14:50,0.674,0.970,0.617,1.224,0.865,0.381,0.672,0.632,�k��,5.5,��
2021/02/11,15:00,0.673,0.971,0.614,1.223,0.866,0.381,0.674,0.632,�k�k��,7.6,��
2021/02/11,15:10,0.673,0.966,0.615,1.225,0.865,0.382,0.672,0.631,�k��,7.4,��
2021/02/11,15:20,0.671,0.969,0.614,1.225,0.866,0.383,0.673,0.631,�k��,6.6,��
2021/02/11,15:30,0.670,0.968,0.614,1.221,0.862,0.381,0.672,0.633,�k��,8.1,��
2021/02/11,15:40,0.671,0.971,0.614,1.225,0.863,0.382,0.675,0.636,�k��,7.8,��
2021/02/11,15:50,0.671,0.970,0.615,1.224,0.862,0.382,0.674,0.633,�k��,7.6,��
2021/02/11,16:00,0.670,0.973,0.615,1.224,0.861,0.381,0.672,0.635,�k��,8.8,��
2021/02/11,16:10,0.673,0.970,0.613,1.223,0.861,0.382,0.672,0.633,�k��,6.0,��
2021/02/11,16:20,0.671,0.972,0.614,1.226,0.863,0.380,0.674,0.634,�k�k��,5.0,��
2021/02/11,16:30,0.672,0.969,0.613,1.223,0.865,0.382,0.673,0.633,�k,4.1,��
2021/02/11,16:40,0.671,0.968,0.613,1.223,0.863,0.380,0.676,0.633,�k,4.3,��
2021/02/11,16:50,0.673,0.971,0.616,1.222,0.863,0.380,0.674,0.633,�k,4.5,��
2021/02/11,17:00,0.671,0.970,0.614,1.222,0.865,0.380,0.675,0.634,�k�k��,5.3,��
2021/02/11,17:10,0.672,0.970,0.615,1.222,0.863,0.382,0.675,0.633,�k�k��,6.5,��
2021/02/11,17:20,0.671,0.968,0.614,1.221,0.865,0.380,0.674,0.634,�k�k��,7.0,��
2021/02/11,17:30,0.671,0.970,0.613,1.223,0.863,0.381,0.675,0.633,�k�k��,6.4,��
2021/02/11,17:40,0.671,0.968,0.612,1.223,0.863,0.381,0.674,0.632,�k�k��,7.4,��
2021/02/11,17:50,0.671,0.971,0.614,1.224,0.866,0.380,0.674,0.635,�k�k��,7.0,��
2021/02/11,18:00,0.670,0.969,0.615,1.221,0.863,0.380,0.675,0.632,�k��,6.3,��
2021/02/11,18:10,0.670,0.970,0.614,1.223,0.864,0.381,0.673,0.634,�k��,4.9,��
2021/02/11,18:20,0.671,0.969,0.612,1.222,0.863,0.380,0.673,0.635,�k��,5.0,��
2021/02/11,18:30,0.669,0.968,0.612,1.224,0.863,0.380,0.673,0.634,�k�k��,5.7,��
2021/02/11,18:40,0.670,0.970,0.614,1.223,0.862,0.379,0.674,0.633,�k�k��,6.2,��
2021/02/11,18:50,0.671,0.971,0.613,1.220,0.863,0.380,0.673,0.632,�k�k��,6.1,��
2021/02/11,19:00,0.670,0.970,0.613,1.223,0.864,0.380,0.673,0.633,�k�k��,6.4,��
2021/02/11,19:10,0.671,0.967,0.613,1.222,0.864,0.381,0.672,0.633,�k�k��,5.6,��
2021/02/11,19:20,0.669,0.969,0.614,1.223,0.862,0.379,0.673,0.631,�k�k��,4.9,��
2021/02/11,19:30,0.670,0.969,0.613,1.221,0.862,0.379,0.671,0.634,�k�k��,4.3,��
2021/02/11,19:40,0.670,0.968,0.612,1.222,0.863,0.381,0.672,0.635,�k�k��,4.3,��
2021/02/11,19:50,0.670,0.968,0.613,1.222,0.863,0.381,0.672,0.633,�k,4.1,��
2021/02/11,20:00,0.670,0.968,0.612,1.219,0.865,0.380,0.672,0.633,�k�k��,3.8,��
2021/02/11,20:10,0.669,0.969,0.613,1.223,0.862,0.379,0.671,0.633,�k�k��,2.6,��
2021/02/11,20:20,0.670,0.968,0.614,1.221,0.863,0.380,0.672,0.632,�k,1.4,��
2021/02/11,20:30,0.670,0.970,0.613,1.221,0.861,0.379,0.673,0.632,�k�k��,1.5,��
2021/02/11,20:40,0.671,0.965,0.613,1.221,0.863,0.380,0.672,0.633,�k,2.6,��
2021/02/11,20:50,0.669,0.967,0.612,1.219,0.861,0.380,0.671,0.633,�k�k��,3.7,��
2021/02/11,21:00,0.668,0.967,0.614,1.220,0.865,0.379,0.672,0.632,�k�k��,3.6,��
2021/02/11,21:10,0.669,0.968,0.613,1.222,0.863,0.380,0.671,0.631,�k�k��,3.8,��
2021/02/11,21:20,0.667,0.968,0.613,1.221,0.862,0.380,0.671,0.632,�k�k��,4.2,��
2021/02/11,21:30,0.670,0.965,0.613,1.221,0.864,0.378,0.672,0.633,�k,4.9,��
2021/02/11,21:40,0.668,0.968,0.611,1.222,0.861,0.379,0.670,0.633,�k,4.7,��
2021/02/11,21:50,0.667,0.968,0.613,1.223,0.863,0.380,0.670,0.632,�k�k��,5.7,��
2021/02/11,22:00,0.669,0.969,0.612,1.222,0.863,0.379,0.671,0.633,�k�k��,5.5,��
2021/02/11,22:10,0.668,0.970,0.613,1.220,0.864,0.379,0.671,0.633,�k�k��,5.5,��
2021/02/11,22:20,0.668,0.968,0.612,1.221,0.863,0.379,0.672,0.633,�k,5.0,��
2021/02/11,22:30,0.670,0.968,0.612,1.222,0.863,0.380,0.672,0.633,�k�k��,5.4,��
2021/02/11,22:40,0.668,0.968,0.612,1.221,0.861,0.379,0.671,0.632,�k�k��,5.1,��
2021/02/11,22:50,0.669,0.969,0.612,1.221,0.864,0.378,0.670,0.632,�k�k��,6.1,��
2021/02/11,23:00,0.667,0.969,0.614,1.221,0.862,0.378,0.670,0.633,�k�k��,5.4,��
2021/02/11,23:10,0.669,0.967,0.612,1.222,0.861,0.379,0.673,0.631,�k�k��,4.8,��
2021/02/11,23:20,0.668,0.967,0.611,1.219,0.863,0.378,0.673,0.632,�k�k��,4.1,��
2021/02/11,23:30,0.670,0.969,0.612,1.220,0.861,0.379,0.672,0.632,�k,5.2,��
2021/02/11,23:40,0.668,0.966,0.612,1.221,0.862,0.378,0.671,0.631,�k,6.1,��
2021/02/11,23:50,0.667,0.967,0.612,1.221,0.863,0.378,0.671,0.633,�k�k��,6.0,��
